Tracking 19485 objects as of 21-Jan-2019
HD Live streaming from Space Station
objects crossing your sky now

INTELSAT 903

Track INTELSAT 903 now!
INTELSAT 903 is classified as:


NORAD ID: 27403
Int'l Code: 2002-016A
Perigee: 35,788.2 km
Apogee: 35,799.6 km
Inclination: 1.1 °
Period: 1,436.1 minutes
Semi major axis: 42164 km
RCS: 28.8022 m2 (large)
Launch date: March 30, 2002
Source: International Telecommunications Satellite Organization (ITSO)
Launch site: TYURATAM MISSILE AND SPACE COMPLEX (TTMTR)

76 C-band, 22 Ku-band, broadcasting, business services, direct-to-home TV broadcasting, telecommunications, VSAT networks; Atlantic Ocean region.
aabbcc
Your satellite tracking list
Your tracking list is empty




NASA's NSSDC Master Catalog

Two Line Element Set (TLE):
1 27403U 02016A   19020.77659509 -.00000228 +00000-0 +00000-0 0  9998
2 27403 001.1094 092.7620 0001356 255.5473 019.6038 01.00271222018558
Source of the keplerian elements: AFSPC